TIANMU-1 11

Last updated on Thu Jul 03 2025 00:02:22 GMT+0000 (Coordinated Universal Time)

1 58645U 23205A 25183.57351830 .00003087 00000+0 13698-3 0 9998 2 58645 97.3715 206.2038 0010873 148.0952 212.0945 15.22265499 84258
UTC large
Height (km)
Speed (km/s)
/
Latitude / Longitude
Inclination (degrees)
Orbital Period (minutes)
Azimuth
Elevation
Range (km)
Doppler Factor

Next 0 passes for location: London (51.5072 / 0.1276)

Sorry there are no passes over London.